SCP
0 0 0 0 0 2 2 4 4 3 3 3 2 1 1 1 1 1 1 1 1 1 1 1 1 1 1 1 1 1 1 1 1 1 1 1 1 1 1 1 0 1 1
0 0 0 0 1 2 3 4 5 4 4 3 2 2 2 1 1 1 1 2 2 2 2 1 1 1 1 1 2 1 1 1 2 2 1 1 1 1 1 1 1 0 0
0 0 0 0 1 5 7 3 5 4 4 3 3 2 2 2 2 2 1 2 2 3 2 2 2 2 2 2 2 2 2 1 2 2 1 1 1 1 1 0 0 0 0
0 0 0 0 0 3 4 6 3 5 4 3 2 2 2 2 3 2 3 3 3 3 3 2 3 3 3 2 3 3 2 3 2 3 2 2 0 1 0 0 0 0 0
0 0 0 0 0 0 0 2 2 5 4 2 2 2 2 3 3 4 4 3 3 3 3 3 3 3 4 3 4 3 3 3 2 2 2 1 0 0 0 0 0 0 0
0 0 0 0 0 0 0 0 0 0 0 2 3 3 4 4 4 5 5 6 5 4 3 4 4 5 4 5 4 4 3 3 3 2 1 1 1 0 0 0 0 0 0
0 0 0 0 0 0 0 0 0 0 0 0 0 5 5 5 4 5 6 5 7 8 5 4 5 6 4 5 5 5 3 3 4 3 2 1 1 1 0 0 0 0 0
0 0 0 0 0 0 0 0 0 0 0 0 0 0 5 6 6 4 4 4 8 8 9 6 6 5 5 5 6 4 5 4 4 3 2 2 1 0 0 0 0 0 0
0 0 0 0 0 0 0 0 0 0 0 0 0 0 0 3 5 5 6 4 6 7 10 9 6 6 5 5 5 6 4 5 4 4 4 1 0 0 0 0 0 0 0
0 0 0 0 0 0 0 0 0 0 0 0 0 3 2 1 4 8 7 7 5 8 7 7 6 5 5 5 5 6 5 5 5 5 0 0 0 0 0 0 0 0 0
0 0 0 0 0 0 0 0 0 0 1 1 0 0 1 7 4 5 6 6 5 5 8 8 6 7 4 4 5 5 5 5 4 0 0 0 0 0 0 0 0 0 0
0 0 0 0 0 0 0 0 0 0 0 0 1 3 2 2 3 6 5 6 6 6 5 7 6 6 5 4 4 3 3 1 0 0 0 0 0 0 0 0 0 0 0
0 0 0 0 0 0 0 0 0 0 0 0 0 1 4 3 2 2 4 5 6 6 7 5 4 4 3 4 4 1 0 0 0 0 0 0 0 0 0 0 0 0 0
0 0 0 0 0 0 0 0 0 0 0 0 0 0 1 0 1 3 4 4 5 6 6 5 4 3 3 1 0 0 0 0 0 0 0 0 0 0 0 0 0 0 0
0 0 0 0 0 0 0 0 0 0 0 0 0 0 0 0 0 0 1 3 4 4 4 3 3 1 0 0 0 0 0 0 0 0 0 0 0 0 0 0 0 0 0
0 0 0 0 0 0 0 0 0 0 0 0 0 0 0 0 0 0 0 0 0 1 1 1 0 0 0 0 0 0 0 0 0 0 0 0 0 0 0 0 0 0 0
0 0 0 0 0 0 0 0 0 0 0 0 0 0 0 0 0 0 0 0 0 0 0 0 0 0 0 0 0 0 0 0 0 0 0 0 0 0 0 0 0 0 0
0 0 0 0 0 0 0 0 0 0 0 0 0 0 0 0 -0 0 0 0 0 0 0 0 0 0 0 0 0 0 0 0 0 0 0 0 0 0 0 0 0 0 0
0 0 0 0 0 0 0 0 0 0 0 0 0 0 0 0 -0 0 0 0 0 0 0 0 0 0 0 0 0 0 0 0 0 0 0 0 0 0 0 0 0 0 0
0 0 0 0 0 0 0 0 0 0 0 0 0 0 0 0 0 0 0 0 0 0 0 0 0 0 0 0 0 0 0 0 0 0 0 0 0 0 0 0 0 0 0
0 0 0 0 0 0 0 0 0 0 0 0 0 0 0 0 0 0 0 0 0 0 0 0 0 0 0 0 0 0 0 0 0 0 0 0 0 0 0 0 0 0 0
0 0 0 0 0 0 0 0 0 0 0 0 0 0 0 0 0 0 0 0 0 0 0 0 0 0 0 0 0 0 0 0 0 0 0 0 0 0 0 0 0 0 0
0 0 0 0 0 0 0 0 0 0 0 0 0 0 0 0 0 0 -0 0 0 0 0 0 0 0 0 0 0 0 0 0 0 0 0 0 0 0 0 0 0 0 0
0 0 0 0 0 0 0 0 0 0 0 0 0 0 0 0 0 0 0 0 0 0 0 0 0 0 0 0 0 0 0 0 0 0 0 0 0 0 0 0 0 0 0
0 0 0 0 -0 0 0 0 0 0 0 0 0 0 0 0 0 0 0 0 0 0 0 0 0 0 0 0 0 0 0 0 0 0 0 0 0 0 0 0 0 0 0
0 0 0 0 0 -0 0 0 0 0 0 0 0 0 0 0 0 0 0 0 0 0 0 0 0 0 0 0 0 0 0 0 0 0 0 0 0 0 0 0 0 0 0
Wind_Speed_500mb
74 67 59 64 58 70 67 90 87 78 79 79 81 75 82 72 72 69 63 63 67 64 60 71 63 63 66 65 60 56 52 45 42 42 46 48 42 43 37 30 23 27 30
52 70 74 66 68 61 74 84 87 77 79 81 80 81 71 75 71 71 71 71 72 73 66 67 73 70 71 69 64 62 62 61 55 55 45 34 40 39 32 33 28 33 33
50 42 61 65 72 64 62 78 85 80 78 81 73 67 64 59 66 71 75 77 78 80 73 68 71 74 78 77 72 70 69 64 62 62 41 21 22 29 30 42 46 47 47
52 50 40 46 61 68 62 66 72 86 83 73 77 75 73 76 76 76 73 75 78 81 79 73 75 78 79 80 78 72 74 67 72 67 66 40 24 24 25 40 41 50 40
69 63 54 40 44 59 59 71 66 68 70 69 70 70 77 75 71 70 71 72 74 75 76 77 76 80 85 86 84 78 79 77 80 75 72 73 59 42 25 32 42 43 39
73 62 54 44 30 29 56 55 67 83 81 69 71 76 77 77 69 69 73 72 77 76 77 78 80 84 84 92 91 85 81 82 82 77 74 68 80 79 62 43 34 37 28
69 61 51 39 26 27 21 25 53 64 62 74 80 72 83 84 88 72 72 74 76 81 87 85 87 88 90 91 92 90 88 86 85 79 77 70 73 68 70 72 60 44 33
20 20 9 7 15 19 25 24 22 33 57 62 70 81 67 81 86 86 90 89 75 84 87 89 86 90 88 88 96 93 96 91 89 80 79 76 73 68 63 61 55 43 40
15 21 18 9 4 8 11 15 22 26 26 34 53 59 68 78 80 82 71 80 73 84 90 86 89 89 89 89 92 96 93 98 93 87 83 87 85 78 65 58 51 48 41
22 20 19 20 15 8 9 17 28 29 29 29 34 27 57 66 67 69 73 73 77 67 69 80 88 87 88 85 89 95 93 94 92 85 88 91 83 76 68 59 55 49 48
21 18 15 14 15 14 12 14 16 14 19 28 41 36 21 38 45 52 60 63 66 73 75 74 77 84 79 78 87 90 92 93 92 92 91 89 83 79 69 60 55 55 51
14 13 11 9 10 11 11 11 12 14 12 12 16 27 41 40 30 41 49 54 64 67 64 76 81 83 78 78 87 93 95 98 98 96 90 90 81 76 66 63 54 51 49
24 16 13 7 6 12 16 16 18 21 19 17 14 12 20 29 45 55 47 48 58 62 67 78 83 81 76 71 88 95 98 104 103 97 95 81 75 72 69 61 56 48 45
19 21 20 13 11 18 21 26 21 25 25 26 22 18 21 30 29 32 39 55 53 62 62 68 76 74 67 69 84 94 103 101 98 102 93 84 76 68 66 58 53 47 42
29 22 27 32 35 28 23 27 29 34 27 31 28 32 26 30 36 40 36 42 49 54 60 65 68 70 66 69 68 90 102 100 103 94 85 80 70 61 62 59 48 44 42
27 25 30 30 27 27 28 29 28 32 33 40 33 35 38 34 38 29 37 52 44 47 55 63 70 74 71 74 75 77 96 102 100 85 80 76 71 68 61 52 47 43 41
30 35 34 33 33 34 34 30 32 35 37 38 40 35 38 45 43 38 35 39 46 47 49 58 66 70 73 77 75 82 91 97 91 82 83 77 69 62 57 50 44 40 36
36 36 36 33 32 31 29 34 39 44 43 45 42 40 39 39 48 46 37 36 42 47 50 57 70 79 71 74 80 84 90 96 85 86 84 74 67 59 54 51 45 39 35
45 43 41 46 40 38 39 45 50 50 50 50 46 43 40 42 45 46 46 37 38 44 48 50 57 65 71 79 80 93 90 85 85 86 80 69 59 54 51 47 43 42 35
46 48 53 56 59 60 54 57 57 55 64 54 53 50 47 46 44 45 47 48 42 42 44 47 51 54 59 72 79 84 79 83 90 84 74 64 56 51 46 49 40 36 30
62 60 57 57 60 61 68 67 72 68 65 59 59 56 55 54 50 55 52 50 49 43 42 44 48 51 56 65 75 77 74 82 87 83 77 67 60 56 54 45 36 32 24
68 66 68 65 65 67 66 71 72 86 75 71 63 61 59 52 53 60 55 52 52 48 41 42 48 50 50 54 69 70 69 80 82 80 71 69 66 51 43 36 34 29 24
67 69 69 67 69 66 67 71 77 73 77 74 73 69 59 58 62 67 62 55 56 54 45 45 49 52 53 55 67 72 77 78 79 73 61 43 44 50 46 40 29 24 20
69 71 72 70 64 72 61 63 66 64 65 72 77 73 69 64 61 67 62 59 58 59 54 51 56 56 60 64 74 79 79 71 62 60 49 52 50 42 37 33 28 22 18
67 68 71 72 71 64 68 66 63 61 65 69 76 80 80 78 72 71 64 59 59 57 54 52 56 63 67 74 82 85 81 83 80 69 68 62 51 38 29 24 19 20 27
72 74 80 76 73 68 61 56 55 44 53 67 74 80 83 85 86 78 73 65 64 59 50 48 53 59 67 73 85 89 83 72 70 71 69 65 55 40 26 29 32 37 33
Wind_Direction_500mb
224 234 220 213 218 210 209 200 206 209 211 209 207 204 208 209 210 211 215 221 228 234 227 217 219 213 222 220 222 224 219 227 229 233 230 240 242 249 248 238 256 252 259
244 225 226 221 208 213 210 197 203 211 215 214 210 207 210 212 219 217 216 222 227 233 233 225 221 218 222 226 222 225 221 219 223 229 240 243 247 246 236 233 236 230 227
259 247 223 222 202 204 208 199 203 216 220 221 209 211 209 217 216 225 223 220 225 233 236 232 226 222 224 230 229 223 225 223 224 228 221 216 224 224 225 218 223 232 237
252 264 268 236 199 201 209 200 207 212 216 219 218 208 210 210 216 226 231 229 231 235 241 236 232 223 227 231 234 228 228 224 222 225 225 209 215 201 198 220 226 232 229
245 260 264 256 207 214 216 218 189 196 218 217 217 217 215 218 219 221 226 233 239 242 242 242 235 230 222 232 232 231 227 229 229 235 228 221 222 216 195 204 218 229 241
214 228 244 249 249 207 213 218 223 228 224 217 227 227 218 218 221 221 222 224 231 242 242 245 242 238 229 227 232 231 233 231 231 236 236 229 225 224 218 218 220 243 242
205 212 225 231 232 252 254 235 227 228 236 229 221 234 232 228 225 222 223 225 226 227 242 245 242 239 239 229 231 228 232 233 231 229 235 236 236 236 234 239 239 235 232
109 125 143 230 247 264 263 265 240 226 222 226 229 230 231 233 233 236 231 228 229 228 234 242 244 243 240 238 228 230 229 233 231 231 230 232 234 238 238 239 233 226 222
93 80 71 62 27 341 325 300 278 249 231 238 240 243 238 235 238 234 235 232 232 236 232 235 243 244 242 239 233 228 227 229 231 230 227 226 234 239 237 231 233 230 224
72 66 56 43 32 357 351 305 282 273 259 248 244 256 246 236 238 234 233 234 233 234 243 239 241 242 239 238 234 230 228 229 231 230 226 227 229 233 233 229 233 240 235
78 73 50 44 30 14 13 344 305 285 270 266 257 247 224 232 236 238 241 241 240 236 233 238 238 242 238 239 233 231 230 228 228 228 224 225 229 236 231 225 232 233 229
43 51 67 49 30 8 350 332 337 314 281 259 256 258 255 236 227 240 244 246 239 238 237 238 239 240 239 237 232 229 227 228 228 228 226 226 225 229 230 232 226 225 228
356 360 20 28 3 338 342 329 337 323 329 307 267 265 279 279 256 242 234 246 249 250 241 239 243 245 244 239 230 232 231 229 231 228 234 230 229 221 222 222 226 225 229
284 299 311 314 337 327 326 325 325 318 320 315 310 277 282 250 247 241 250 240 242 247 247 248 248 248 245 242 231 233 230 231 232 228 229 228 223 220 226 217 221 226 223
282 278 279 296 299 296 306 308 307 306 319 311 320 310 291 292 275 256 250 243 242 249 251 250 250 248 247 243 236 237 237 236 233 227 227 221 216 220 217 219 218 219 219
286 278 268 271 288 299 300 299 299 311 306 313 311 311 308 301 292 289 264 258 254 251 255 255 253 251 246 242 244 240 238 236 234 234 223 213 212 213 212 216 217 221 222
293 282 283 285 282 287 291 291 300 302 301 301 302 305 306 309 301 297 291 273 261 255 253 261 258 255 248 246 247 245 245 239 236 231 214 207 206 211 213 214 209 212 223
352 341 338 303 295 288 284 297 302 299 296 294 292 294 294 294 298 298 298 291 273 258 256 257 253 253 252 254 248 245 243 234 233 224 211 212 208 211 211 205 207 214 224
319 315 312 311 314 293 290 295 296 297 291 289 287 288 290 286 289 297 298 300 292 269 263 262 260 260 256 248 242 237 232 232 224 211 207 207 208 208 204 207 210 217 221
301 292 289 288 287 284 284 281 280 286 282 283 282 281 283 283 283 289 295 295 299 291 263 266 261 261 256 249 241 237 233 221 209 201 202 202 202 200 204 210 209 213 212
300 296 284 276 274 271 271 273 274 274 274 278 276 273 273 270 274 276 280 288 295 295 280 265 266 259 252 243 240 240 228 212 199 198 195 194 193 198 205 204 204 209 215
299 297 297 290 277 269 266 265 263 268 274 277 275 273 269 267 267 269 278 286 288 288 280 267 262 256 248 237 232 226 211 204 203 196 195 191 185 198 198 198 197 202 205
302 299 294 291 296 273 266 263 264 265 268 269 271 270 269 266 263 274 281 284 284 281 275 263 254 247 238 227 224 214 204 207 206 200 186 187 192 191 192 192 190 193 194
295 295 297 294 288 290 274 265 267 269 267 265 266 267 272 273 269 274 276 278 277 275 273 258 249 242 233 222 214 211 212 208 198 193 193 193 188 184 181 181 178 177 194
299 300 299 297 293 294 288 284 270 266 263 260 260 262 266 269 268 272 276 280 276 272 271 266 256 244 233 225 216 208 202 200 198 187 179 177 174 167 157 163 190 197 191
296 293 291 295 294 296 294 285 282 283 266 263 259 259 262 264 266 265 271 278 273 268 264 262 256 251 242 232 214 209 207 201 189 183 174 168 163 160 186 204 190 185 180
Wind_Speed_850mb
74 67 59 64 58 70 67 90 87 78 79 79 81 75 82 72 72 69 63 63 67 64 60 71 63 63 66 65 60 56 52 45 42 42 46 48 42 43 37 30 23 27 30
52 70 74 66 68 61 74 84 87 77 79 81 80 81 71 75 71 71 71 71 72 73 66 67 73 70 71 69 64 62 62 61 55 55 45 34 40 39 32 33 28 33 33
50 42 61 65 72 64 62 78 85 80 78 81 73 67 64 59 66 71 75 77 78 80 73 68 71 74 78 77 72 70 69 64 62 62 41 21 22 29 30 42 46 47 47
52 50 40 46 61 68 62 66 72 86 83 73 77 75 73 76 76 76 73 75 78 81 79 73 75 78 79 80 78 72 74 67 72 67 66 40 24 24 25 40 41 50 40
69 63 54 40 44 59 59 71 66 68 70 69 70 70 77 75 71 70 71 72 74 75 76 77 76 80 85 86 84 78 79 77 80 75 72 73 59 42 25 32 42 43 39
73 62 54 44 30 29 56 55 67 83 81 69 71 76 77 77 69 69 73 72 77 76 77 78 80 84 84 92 91 85 81 82 82 77 74 68 80 79 62 43 34 37 28
69 61 51 39 26 27 21 25 53 64 62 74 80 72 83 84 88 72 72 74 76 81 87 85 87 88 90 91 92 90 88 86 85 79 77 70 73 68 70 72 60 44 33
20 20 9 7 15 19 25 24 22 33 57 62 70 81 67 81 86 86 90 89 75 84 87 89 86 90 88 88 96 93 96 91 89 80 79 76 73 68 63 61 55 43 40
15 21 18 9 4 8 11 15 22 26 26 34 53 59 68 78 80 82 71 80 73 84 90 86 89 89 89 89 92 96 93 98 93 87 83 87 85 78 65 58 51 48 41
22 20 19 20 15 8 9 17 28 29 29 29 34 27 57 66 67 69 73 73 77 67 69 80 88 87 88 85 89 95 93 94 92 85 88 91 83 76 68 59 55 49 48
21 18 15 14 15 14 12 14 16 14 19 28 41 36 21 38 45 52 60 63 66 73 75 74 77 84 79 78 87 90 92 93 92 92 91 89 83 79 69 60 55 55 51
14 13 11 9 10 11 11 11 12 14 12 12 16 27 41 40 30 41 49 54 64 67 64 76 81 83 78 78 87 93 95 98 98 96 90 90 81 76 66 63 54 51 49
24 16 13 7 6 12 16 16 18 21 19 17 14 12 20 29 45 55 47 48 58 62 67 78 83 81 76 71 88 95 98 104 103 97 95 81 75 72 69 61 56 48 45
19 21 20 13 11 18 21 26 21 25 25 26 22 18 21 30 29 32 39 55 53 62 62 68 76 74 67 69 84 94 103 101 98 102 93 84 76 68 66 58 53 47 42
29 22 27 32 35 28 23 27 29 34 27 31 28 32 26 30 36 40 36 42 49 54 60 65 68 70 66 69 68 90 102 100 103 94 85 80 70 61 62 59 48 44 42
27 25 30 30 27 27 28 29 28 32 33 40 33 35 38 34 38 29 37 52 44 47 55 63 70 74 71 74 75 77 96 102 100 85 80 76 71 68 61 52 47 43 41
30 35 34 33 33 34 34 30 32 35 37 38 40 35 38 45 43 38 35 39 46 47 49 58 66 70 73 77 75 82 91 97 91 82 83 77 69 62 57 50 44 40 36
36 36 36 33 32 31 29 34 39 44 43 45 42 40 39 39 48 46 37 36 42 47 50 57 70 79 71 74 80 84 90 96 85 86 84 74 67 59 54 51 45 39 35
45 43 41 46 40 38 39 45 50 50 50 50 46 43 40 42 45 46 46 37 38 44 48 50 57 65 71 79 80 93 90 85 85 86 80 69 59 54 51 47 43 42 35
46 48 53 56 59 60 54 57 57 55 64 54 53 50 47 46 44 45 47 48 42 42 44 47 51 54 59 72 79 84 79 83 90 84 74 64 56 51 46 49 40 36 30
62 60 57 57 60 61 68 67 72 68 65 59 59 56 55 54 50 55 52 50 49 43 42 44 48 51 56 65 75 77 74 82 87 83 77 67 60 56 54 45 36 32 24
68 66 68 65 65 67 66 71 72 86 75 71 63 61 59 52 53 60 55 52 52 48 41 42 48 50 50 54 69 70 69 80 82 80 71 69 66 51 43 36 34 29 24
67 69 69 67 69 66 67 71 77 73 77 74 73 69 59 58 62 67 62 55 56 54 45 45 49 52 53 55 67 72 77 78 79 73 61 43 44 50 46 40 29 24 20
69 71 72 70 64 72 61 63 66 64 65 72 77 73 69 64 61 67 62 59 58 59 54 51 56 56 60 64 74 79 79 71 62 60 49 52 50 42 37 33 28 22 18
67 68 71 72 71 64 68 66 63 61 65 69 76 80 80 78 72 71 64 59 59 57 54 52 56 63 67 74 82 85 81 83 80 69 68 62 51 38 29 24 19 20 27
72 74 80 76 73 68 61 56 55 44 53 67 74 80 83 85 86 78 73 65 64 59 50 48 53 59 67 73 85 89 83 72 70 71 69 65 55 40 26 29 32 37 33
Wind_Direction_850mb
224 234 220 213 218 210 209 200 206 209 211 209 207 204 208 209 210 211 215 221 228 234 227 217 219 213 222 220 222 224 219 227 229 233 230 240 242 249 248 238 256 252 259
244 225 226 221 208 213 210 197 203 211 215 214 210 207 210 212 219 217 216 222 227 233 233 225 221 218 222 226 222 225 221 219 223 229 240 243 247 246 236 233 236 230 227
259 247 223 222 202 204 208 199 203 216 220 221 209 211 209 217 216 225 223 220 225 233 236 232 226 222 224 230 229 223 225 223 224 228 221 216 224 224 225 218 223 232 237
252 264 268 236 199 201 209 200 207 212 216 219 218 208 210 210 216 226 231 229 231 235 241 236 232 223 227 231 234 228 228 224 222 225 225 209 215 201 198 220 226 232 229
245 260 264 256 207 214 216 218 189 196 218 217 217 217 215 218 219 221 226 233 239 242 242 242 235 230 222 232 232 231 227 229 229 235 228 221 222 216 195 204 218 229 241
214 228 244 249 249 207 213 218 223 228 224 217 227 227 218 218 221 221 222 224 231 242 242 245 242 238 229 227 232 231 233 231 231 236 236 229 225 224 218 218 220 243 242
205 212 225 231 232 252 254 235 227 228 236 229 221 234 232 228 225 222 223 225 226 227 242 245 242 239 239 229 231 228 232 233 231 229 235 236 236 236 234 239 239 235 232
109 125 143 230 247 264 263 265 240 226 222 226 229 230 231 233 233 236 231 228 229 228 234 242 244 243 240 238 228 230 229 233 231 231 230 232 234 238 238 239 233 226 222
93 80 71 62 27 341 325 300 278 249 231 238 240 243 238 235 238 234 235 232 232 236 232 235 243 244 242 239 233 228 227 229 231 230 227 226 234 239 237 231 233 230 224
72 66 56 43 32 357 351 305 282 273 259 248 244 256 246 236 238 234 233 234 233 234 243 239 241 242 239 238 234 230 228 229 231 230 226 227 229 233 233 229 233 240 235
78 73 50 44 30 14 13 344 305 285 270 266 257 247 224 232 236 238 241 241 240 236 233 238 238 242 238 239 233 231 230 228 228 228 224 225 229 236 231 225 232 233 229
43 51 67 49 30 8 350 332 337 314 281 259 256 258 255 236 227 240 244 246 239 238 237 238 239 240 239 237 232 229 227 228 228 228 226 226 225 229 230 232 226 225 228
356 360 20 28 3 338 342 329 337 323 329 307 267 265 279 279 256 242 234 246 249 250 241 239 243 245 244 239 230 232 231 229 231 228 234 230 229 221 222 222 226 225 229
284 299 311 314 337 327 326 325 325 318 320 315 310 277 282 250 247 241 250 240 242 247 247 248 248 248 245 242 231 233 230 231 232 228 229 228 223 220 226 217 221 226 223
282 278 279 296 299 296 306 308 307 306 319 311 320 310 291 292 275 256 250 243 242 249 251 250 250 248 247 243 236 237 237 236 233 227 227 221 216 220 217 219 218 219 219
286 278 268 271 288 299 300 299 299 311 306 313 311 311 308 301 292 289 264 258 254 251 255 255 253 251 246 242 244 240 238 236 234 234 223 213 212 213 212 216 217 221 222
293 282 283 285 282 287 291 291 300 302 301 301 302 305 306 309 301 297 291 273 261 255 253 261 258 255 248 246 247 245 245 239 236 231 214 207 206 211 213 214 209 212 223
352 341 338 303 295 288 284 297 302 299 296 294 292 294 294 294 298 298 298 291 273 258 256 257 253 253 252 254 248 245 243 234 233 224 211 212 208 211 211 205 207 214 224
319 315 312 311 314 293 290 295 296 297 291 289 287 288 290 286 289 297 298 300 292 269 263 262 260 260 256 248 242 237 232 232 224 211 207 207 208 208 204 207 210 217 221
301 292 289 288 287 284 284 281 280 286 282 283 282 281 283 283 283 289 295 295 299 291 263 266 261 261 256 249 241 237 233 221 209 201 202 202 202 200 204 210 209 213 212
300 296 284 276 274 271 271 273 274 274 274 278 276 273 273 270 274 276 280 288 295 295 280 265 266 259 252 243 240 240 228 212 199 198 195 194 193 198 205 204 204 209 215
299 297 297 290 277 269 266 265 263 268 274 277 275 273 269 267 267 269 278 286 288 288 280 267 262 256 248 237 232 226 211 204 203 196 195 191 185 198 198 198 197 202 205
302 299 294 291 296 273 266 263 264 265 268 269 271 270 269 266 263 274 281 284 284 281 275 263 254 247 238 227 224 214 204 207 206 200 186 187 192 191 192 192 190 193 194
295 295 297 294 288 290 274 265 267 269 267 265 266 267 272 273 269 274 276 278 277 275 273 258 249 242 233 222 214 211 212 208 198 193 193 193 188 184 181 181 178 177 194
299 300 299 297 293 294 288 284 270 266 263 260 260 262 266 269 268 272 276 280 276 272 271 266 256 244 233 225 216 208 202 200 198 187 179 177 174 167 157 163 190 197 191
296 293 291 295 294 296 294 285 282 283 266 263 259 259 262 264 266 265 271 278 273 268 264 262 256 251 242 232 214 209 207 201 189 183 174 168 163 160 186 204 190 185 180